Regional Weather Roundup
Issued by NWS

Home | Current Version | Previous Version | Text Only | Print | Product List | Glossary Off
Versions: 1 2 3 4 5 6 7 8 9 10 11 12 13 14 15 16 17 18 19 20 21 22 23 24 25 26 27 28 29 30 31 32 33 34 35 36 37 38 39 40 41 42 43 44 45 46 47 48 49 50

034
ASUS43 KIND 030209
RWRIN

WEATHER ROUNDUP FOR INDIANA
NATIONAL WEATHER SERVICE INDIANAPOLIS IN
900 PM EST FRI DEC 02 2016

NOTE: "FAIR" INDICATES FEW OR NO CLOUDS BELOW 12,000 FEET WITH NO
SIGNIFICANT WEATHER AND/OR OBSTRUCTIONS TO VISIBILITY.

* - STATION DOES NOT REPORT WEATHER SUCH AS PRECIPITATION OR FOG.

+ - STATION NOT QUALITY CONTROLLED BY THE NATIONAL WEATHER SERVICE.
    USE DATA WITH CAUTION...ESPECIALLY DEWPOINT AND RELATIVE
    HUMIDITY OBSERVATIONS.

INZ001>003-010>013-019-020-030300-
NORTHWEST INDIANA

CITY           SKY/WX    TMP DP  RH WIND       PRES   REMARKS
GARY /AIRPORT/ CLOUDY    39  27  60 W9        30.31R
KNOX *+        CLOUDY    36  21  55 NW5       30.29R
LA PORTE +     CLOUDY    38  34  85 NW3       30.29R
MICHIGAN CITY+ CLOUDY    36  28  75 NW5       30.29R
MONTICELLO +   CLOUDY    37  30  75 W6        30.29R
RENSSELAER +     N/A     36  34  93 W5        30.30S
VALPARAISO     CLOUDY    38  27  64 W9        30.29R

$$

LMZ046-743>745-030300-
SOUTHERN LAKE MICHIGAN

STATION/POSITION TIME  TEMP    WIND        PRES    WAVE
                       AIR SEA DIR/SP/G            HT
                 (UTC) (F)     (DEG/KT/KT) (MB)    (FT)
MICHIGAN CITY    0140   38     310/ 13/ 15   N/A

$$

INZ004-005-014>016-021>024-030300-
NORTH CENTRAL INDIANA

CITY           SKY/WX    TMP DP  RH WIND       PRES   REMARKS
ELKHART        CLOUDY    36  27  69 W7        30.27R
GOSHEN         CLOUDY    36  26  67 NW7       30.27R
LOGANSPORT +   CLOUDY    36  32  87 W6        30.30R
PERU/GRISSOM   CLOUDY    37  35  91 W8        30.27R
ROCHESTER +    CLOUDY    37  32  81 CALM      30.28R
SOUTH BEND     CLOUDY    35  27  72 NW5       30.28R WCI  31
WARSAW +       CLOUDY    34  28  80 W3        30.27R

$$

INZ006>009-017-018-025>027-030300-
NORTHEAST INDIANA

CITY           SKY/WX    TMP DP  RH WIND       PRES   REMARKS
ANGOLA *+      CLOUDY    34  28  80 W3        30.24R
AUBURN +       CLOUDY    36  28  75 W6        30.26R
FORT WAYNE     CLOUDY    37  32  82 W7        30.27R
HUNTINGTON +   CLOUDY    37  32  84 CALM      30.27R
KENDALLVILLE + CLOUDY    35  28  78 W3        30.25R

$$

INZ028-029-035-036-043>045-051>053-030300-
WEST CENTRAL INDIANA

CITY           SKY/WX    TMP DP  RH WIND       PRES   REMARKS
CRAWFORDSVL +  CLOUDY    36  33  91 W3        30.30S
GREENCASTLE +  CLOUDY    36  34  93 W3        30.31S FOG
LAFAYETTE      CLOUDY    36  34  92 W7        30.30S
TERRE HAUTE    CLOUDY    39  31  72 W6        30.32S

$$

INZ030>032-037>040-046>048-054>057-064-065-030300-
CENTRAL INDIANA

CITY           SKY/WX    TMP DP  RH WIND       PRES   REMARKS
CP ATTERBURY + CLOUDY    37  34  87 NW3       30.32S
FRANKFORT +    CLOUDY    39  34  81 NW9       30.31S
GREENWOOD *+   CLOUDY    38  35  87 W7        30.30S
INDIANAPOLIS   DRIZZLE   37  34  89 W9        30.30S
-EAGLE CREEK   CLOUDY    38  34  85 NW3       30.30R
KOKOMO +       CLOUDY    38  32  79 W9        30.29R
MARION +       CLOUDY    36  33  87 W7        30.29R
MT COMFORT *+  CLOUDY    36  34  93 W3        30.30S
SHELBYVILLE    CLOUDY    39  33  79 W5        30.30R
ZIONSVILLE +   CLOUDY    35  32  88 W5        30.30S WCI  31

$$

INZ033-034-041-042-049-050-058-059-030300-
EAST CENTRAL INDIANA

CITY           SKY/WX    TMP DP  RH WIND       PRES   REMARKS
MUNCIE         CLOUDY    38  32  79 W6        30.28R

$$

INZ060-061-067>069-081>083-085>088-030300-
SOUTHWEST INDIANA

CITY           SKY/WX    TMP DP  RH WIND       PRES   REMARKS
EVANSVILLE     CLEAR     34  28  79 CALM      30.35R
HUNTINGBURG *+ CLOUDY    41  30  65 N3        30.33S
WASHINGTON +   CLOUDY    39  34  82 CALM      30.33S

$$

INZ062-063-066-070>080-084-089>092-030300-
SOUTH CENTRAL AND SOUTHEAST INDIANA

CITY           SKY/WX    TMP DP  RH WIND       PRES   REMARKS
BLOOMINGTON    CLOUDY    39  29  67 NW6       30.31R
MADISON *+     CLOUDY    39  30  70 CALM      30.32S
NORTH VERNON + CLOUDY    41  36  81 NW6       30.31R
SEYMOUR +      CLOUDY    41  32  70 W3        30.31S

$$





USA.gov is the U.S. government's official web portal to all federal, state and local government web resources and services.